Weather History for Middlesboro, KY

Change the Weather History Date:

Friday, February 1, 2013

  Actual Average (KLOZ) Record (KLOZ)
Temperature  
Mean Temperature 27 °F 37 °F  
Max Temperature 37 °F 46 °F 71 °F (1988)
Min Temperature 17 °F 27 °F -11 °F (1971)
Degree Days  
Heating Degree Days 38 28  
Month to date heating degree days 28  
Since 1 July heating degree days 2591  
Cooling Degree Days 0 0  
Month to date cooling degree days 0  
Year to date cooling degree days 0  
Moisture  
Dew Point 16 °F    
Average Humidity 73    
Maximum Humidity 93    
Minimum Humidity 47    
Precipitation  
Precipitation 0.00 in 0.13 in 2.09 in (1981)
Month to date precipitation 0.13  
Year to date precipitation 3.67  
Sea Level Pressure  
Sea Level Pressure 30.30 in    
Wind  
Wind Speed 8 mph (WNW)    
Max Wind Speed 16 mph    
Max Gust Speed 33 mph    
Visibility 9 miles    
Events Rain , Snow    
T = Trace of Precipitation, MM = Missing Value Source: NWS Daily Summary

Daily Weather History Graph

Daily Weather History Graph

Search for Another Location

Airport:

Trip Planner

Search our weather history database for the weather conditions in past years. The results will help you decide how hot, cold, wet, or windy it might be!

Date:

Astronomy

Feb. 01, 2013 Rise Set
Actual Time 6:36 AM CST 5:01 PM CST
Civil Twilight 6:09 AM CST 5:28 PM CST
Nautical Twilight 5:38 AM CST 5:59 PM CST
Astronomical Twilight 5:08 AM CST 6:29 PM CST
Moon 10:55 PM CST (2/1) 9:20 AM CST (2/1)
Length of Visible Light 11h 18m
Length of Day
10h 24m
Waning Gibbous, 70% of the Moon is Illuminated
Feb 1
Waning Gibbous
Feb 3
Last Quarter
Feb 10
New
Feb 17
First Quarter
Feb 25
Full

Hourly Weather History & Observations

Time (CST) Temp. Windchill Dew Point Humidity Pressure Visibility Wind Dir Wind Speed Gust Speed Precip Events Conditions
12:15 AM 37.4 °F 29.8 °F 35.6 °F 93% 29.98 in 1.8 mi NW 11.5 mph 21.9 mph N/A Rain Rain
12:35 AM 35.6 °F 25.9 °F 33.8 °F 93% 30.01 in 1.0 mi WNW 16.1 mph 21.9 mph 0.02 in Snow Snow
12:55 AM 33.8 °F 23.5 °F 32.0 °F 93% 30.03 in 1.2 mi NW 16.1 mph 20.7 mph N/A Snow Light Snow
1:15 AM 30.2 °F 21.9 °F 28.4 °F 93% 30.07 in 1.0 mi NW 9.2 mph 25.3 mph N/A Snow Snow
1:35 AM 28.4 °F 18.5 °F 26.6 °F 93% 30.10 in 2.5 mi NW 11.5 mph 24.2 mph N/A Snow Light Snow
1:55 AM 28.4 °F 17.5 °F 24.8 °F 86% 30.11 in 10.0 mi NNW 13.8 mph 21.9 mph N/A   Overcast
2:15 AM 28.4 °F 17.5 °F 21.2 °F 74% 30.12 in 5.0 mi NNW 13.8 mph 27.6 mph N/A Snow Light Snow
2:35 AM 26.6 °F 16.2 °F 21.2 °F 80% 30.14 in 7.0 mi NNW 11.5 mph 20.7 mph N/A Snow Light Snow
2:55 AM 26.6 °F 14.3 °F 19.4 °F 74% 30.15 in 7.0 mi WNW 16.1 mph 33.4 mph N/A Snow Light Snow
3:15 AM 24.8 °F 12.9 °F 17.6 °F 74% 30.16 in 2.5 mi NNW 13.8 mph 25.3 mph N/A Snow Light Snow
3:35 AM 23.0 °F 10.1 °F 15.8 °F 74% 30.17 in 10.0 mi West 15.0 mph 26.5 mph N/A   Mostly Cloudy
3:55 AM 21.2 °F 9.5 °F 15.8 °F 80% 30.19 in 7.0 mi NW 11.5 mph - N/A Snow Light Snow
4:15 AM 21.2 °F 7.8 °F 14.0 °F 74% 30.21 in 7.0 mi NNW 15.0 mph 23.0 mph N/A Snow Light Snow
4:35 AM 21.2 °F 9.5 °F 12.2 °F 68% 30.23 in 10.0 mi WNW 11.5 mph 23.0 mph N/A   Overcast
4:55 AM 19.4 °F 6.0 °F 12.2 °F 74% 30.25 in 10.0 mi WNW 13.8 mph 20.7 mph N/A   Overcast
5:15 AM 17.6 °F 6.4 °F 10.4 °F 73% 30.27 in 10.0 mi NW 9.2 mph 16.1 mph N/A   Overcast
5:35 AM 17.6 °F 6.4 °F 10.4 °F 73% 30.28 in 10.0 mi WNW 9.2 mph - N/A   Overcast
6:15 AM 17.6 °F 9.3 °F 10.4 °F 73% 30.30 in 10.0 mi WNW 5.8 mph - N/A   Overcast
6:35 AM 17.6 °F 7.3 °F 10.4 °F 73% 30.31 in 10.0 mi WNW 8.1 mph - N/A   Overcast
7:15 AM 17.6 °F 8.2 °F 8.6 °F 68% 30.33 in 10.0 mi NW 6.9 mph - N/A   Overcast
7:35 AM 17.6 °F 9.3 °F 8.6 °F 68% 30.35 in 10.0 mi NW 5.8 mph - N/A   Overcast
7:55 AM 17.6 °F 6.4 °F 8.6 °F 68% 30.35 in 10.0 mi NNW 9.2 mph - N/A   Overcast
8:15 AM 19.4 °F 11.5 °F 10.4 °F 68% 30.36 in 10.0 mi NW 5.8 mph - N/A   Overcast
8:35 AM 19.4 °F 10.4 °F 10.4 °F 68% 30.37 in 10.0 mi West 6.9 mph - N/A   Overcast
9:15 AM 19.4 °F 10.4 °F 10.4 °F 68% 30.38 in 10.0 mi WNW 6.9 mph - N/A   Scattered Clouds
9:35 AM 21.2 °F 13.6 °F 10.4 °F 63% 30.38 in 10.0 mi West 5.8 mph - N/A   Scattered Clouds
10:15 AM 21.2 °F - 12.2 °F 68% 30.39 in 10.0 mi Calm Calm - N/A   Mostly Cloudy
10:35 AM 21.2 °F - 12.2 °F 68% 30.39 in 10.0 mi Calm Calm - N/A   Mostly Cloudy
10:55 AM 24.8 °F - 12.2 °F 59% 30.40 in 10.0 mi Calm Calm - N/A   Scattered Clouds
11:15 AM 24.8 °F 16.9 °F 14.0 °F 64% 30.40 in 10.0 mi WSW 6.9 mph - N/A   Scattered Clouds
11:35 AM 24.8 °F 19.1 °F 14.0 °F 64% 30.39 in 10.0 mi West 4.6 mph - N/A   Scattered Clouds
11:55 AM 26.6 °F 19.1 °F 15.8 °F 64% 30.38 in 10.0 mi West 6.9 mph - N/A   Clear
12:15 PM 26.6 °F 21.2 °F 14.0 °F 59% 30.37 in 10.0 mi West 4.6 mph - N/A   Clear
12:35 PM 26.6 °F 19.1 °F 15.8 °F 64% 30.37 in 10.0 mi West 6.9 mph - N/A   Clear
1:15 PM 28.4 °F 22.2 °F 15.8 °F 59% 30.36 in 10.0 mi NNW 5.8 mph - N/A   Scattered Clouds
1:35 PM 28.4 °F 23.3 °F 14.0 °F 55% 30.36 in 10.0 mi WNW 4.6 mph - N/A   Clear
1:55 PM 28.4 °F 23.3 °F 12.2 °F 51% 30.35 in 10.0 mi SSW 4.6 mph - N/A   Clear
2:15 PM 28.4 °F 24.6 °F 14.0 °F 55% 30.35 in 10.0 mi NW 3.5 mph - N/A   Clear
2:35 PM 28.4 °F - 12.2 °F 51% 30.34 in 10.0 mi Calm Calm - N/A   Clear
2:55 PM 30.2 °F - 12.2 °F 47% 30.35 in 10.0 mi Calm Calm - N/A   Clear
3:15 PM 28.4 °F 24.6 °F 14.0 °F 55% 30.35 in 10.0 mi WNW 3.5 mph - N/A   Clear
3:35 PM 30.2 °F 23.4 °F 15.8 °F 55% 30.35 in 10.0 mi NW 6.9 mph - N/A   Clear
3:55 PM 28.4 °F 24.6 °F 14.0 °F 55% 30.35 in 10.0 mi WNW 3.5 mph - N/A   Clear
4:15 PM 28.4 °F 23.3 °F 14.0 °F 55% 30.34 in 10.0 mi WNW 4.6 mph - N/A   Clear
4:35 PM 28.4 °F 23.3 °F 12.2 °F 51% 30.34 in 10.0 mi West 4.6 mph - N/A   Clear
5:15 PM 26.6 °F - 14.0 °F 59% 30.35 in 10.0 mi Calm Calm - N/A   Clear
5:35 PM 26.6 °F - 15.8 °F 64% 30.35 in 10.0 mi Calm Calm - N/A   Clear
5:55 PM 24.8 °F - 15.8 °F 69% 30.36 in 10.0 mi Calm Calm - N/A   Clear
6:15 PM 24.8 °F - 15.8 °F 69% 30.36 in 10.0 mi Calm Calm - N/A   Clear
6:35 PM 24.8 °F - 17.6 °F 74% 30.37 in 10.0 mi Calm Calm - N/A   Clear
6:55 PM 24.8 °F - 17.6 °F 74% 30.37 in 10.0 mi Calm Calm - N/A   Clear
7:15 PM 23.0 °F - 17.6 °F 80% 30.37 in 10.0 mi Calm Calm - N/A   Clear
7:35 PM 23.0 °F - 17.6 °F 80% 30.37 in 10.0 mi Calm Calm - N/A   Clear
7:55 PM 23.0 °F - 17.6 °F 80% 30.37 in 10.0 mi Calm Calm - N/A   Clear
8:15 PM 21.2 °F - 17.6 °F 86% 30.37 in 10.0 mi Calm Calm - N/A   Clear
8:35 PM 21.2 °F - 17.6 °F 86% 30.36 in 10.0 mi Calm Calm - N/A   Clear
8:55 PM 21.2 °F - 17.6 °F 86% 30.36 in 10.0 mi Calm Calm - N/A   Clear
9:15 PM 21.2 °F - 17.6 °F 86% 30.36 in 10.0 mi Calm Calm - N/A   Clear
9:35 PM 21.2 °F - 17.6 °F 86% 30.36 in 10.0 mi Calm Calm - N/A   Clear
9:55 PM 21.2 °F - 19.4 °F 93% 30.37 in 7.0 mi Calm Calm - N/A   Clear
10:15 PM 21.2 °F - 19.4 °F 93% 30.36 in 10.0 mi Calm Calm - N/A   Clear
10:35 PM 21.2 °F - 19.4 °F 93% 30.36 in 10.0 mi Calm Calm - N/A   Clear
10:55 PM 21.2 °F - 19.4 °F 93% 30.33 in 10.0 mi Calm Calm - N/A   Clear
11:15 PM 21.2 °F 16.4 °F 19.4 °F 93% 30.34 in 10.0 mi WNW 3.5 mph - N/A   Clear
11:35 PM 21.2 °F - 19.4 °F 93% 30.33 in 7.0 mi Calm Calm - N/A   Scattered Clouds
11:55 PM 21.2 °F - 19.4 °F 93% 30.33 in 7.0 mi Calm Calm - N/A   Clear